Temperature
23 22 21 21 21 21 23 25 26 26 25 25 25 24 23 22 22 20 20 20 21 21 20 20 20 20 20 20 20 20 20 19 19 19 19 19 19 19 19 19 19 19 19 19 19 19 19 18 18
23 22 22 22 21 22 23 25 26 26 25 25 25 24 23 22 21 20 20 20 21 21 20 20 20 20 20 20 20 20 20 19 19 19 19 19 19 19 19 19 19 19 19 19 19 18 18 18 18
23 22 22 20 21 22 24 25 26 26 26 25 24 24 23 22 21 21 21 21 21 21 20 20 20 20 20 20 20 20 19 19 19 19 19 19 19 19 19 19 19 19 19 19 19 18 18 18 18
23 22 22 21 23 24 24 25 26 26 25 25 24 23 22 22 22 21 21 21 21 20 20 20 20 20 20 20 19 19 19 19 19 19 19 19 19 19 19 19 19 19 19 18 18 18 18 18 18
24 23 21 22 23 25 26 26 26 25 25 24 23 22 22 22 22 21 21 21 21 20 20 20 20 20 20 20 19 19 19 19 19 19 19 19 19 19 19 19 19 19 19 18 18 18 18 18 18
24 22 21 22 24 26 26 26 26 25 24 24 23 22 21 22 21 21 21 21 21 20 20 20 20 20 20 19 19 19 19 19 19 19 19 19 19 19 18 18 18 18 18 18 18 18 18 18 18
23 21 23 23 25 25 26 26 26 25 24 24 23 22 21 21 21 21 21 21 20 20 20 20 20 19 19 19 19 19 19 19 19 19 19 19 19 19 18 18 18 18 18 18 18 18 18 18 18
25 22 23 23 24 25 26 26 26 25 25 24 24 22 21 21 21 21 21 20 20 20 20 20 19 19 19 19 19 19 19 19 19 19 19 19 19 18 18 18 18 18 18 18 18 18 18 18 18
26 22 23 24 24 25 26 26 25 25 24 24 24 23 22 21 21 21 21 20 20 20 20 19 19 19 19 19 19 19 19 19 19 19 19 19 18 18 18 18 18 18 18 18 18 18 18 18 18
26 23 24 26 25 25 26 26 25 25 24 23 23 23 22 22 21 21 20 20 20 20 19 19 19 19 19 19 19 19 19 19 19 19 19 19 18 18 18 18 18 18 18 18 18 18 18 18 18
26 25 26 27 27 27 26 26 26 24 23 23 23 22 22 21 21 21 21 20 20 20 19 19 19 19 19 19 19 19 19 19 19 19 19 19 18 18 18 18 18 18 18 18 18 18 18 18 18
26 27 28 27 27 27 26 26 25 25 24 24 23 23 22 21 21 21 21 20 20 20 20 19 19 19 19 19 19 19 19 19 19 19 19 18 18 18 18 18 18 18 18 18 18 18 18 18 18
27 27 28 28 27 27 26 26 25 25 25 24 23 22 22 22 21 21 21 21 20 20 20 19 19 19 19 19 19 19 19 19 19 18 18 18 18 18 18 18 18 18 18 18 18 18 18 18 18
27 28 27 27 27 27 26 25 25 25 24 24 23 22 22 22 21 21 21 21 20 20 20 19 19 19 19 19 19 19 19 18 18 18 18 18 18 18 18 18 18 18 18 18 18 18 18 18 18
27 26 26 27 27 27 26 24 24 24 24 23 23 22 22 22 21 21 21 21 20 20 20 19 19 19 19 19 19 19 19 19 18 18 18 18 18 18 18 18 18 18 18 18 18 18 18 18 18
26 25 25 26 26 26 25 23 24 24 24 23 23 22 22 22 21 21 21 21 20 20 20 19 19 19 19 19 19 19 19 18 18 18 18 18 18 18 18 18 18 18 18 18 18 18 18 18 18
24 24 24 26 27 26 25 23 24 24 24 23 22 22 22 21 21 21 21 21 20 20 20 20 19 19 19 19 19 19 18 18 18 18 18 18 18 18 18 18 18 18 18 18 18 18 18 18 18
24 24 25 25 26 26 24 24 24 24 23 23 22 22 21 21 21 21 21 20 20 20 20 20 19 19 19 19 19 18 18 18 18 18 18 18 18 18 18 18 18 18 18 18 18 18 18 18 18
25 25 25 26 27 25 24 23 23 24 23 22 22 21 21 21 21 21 21 21 20 20 20 19 19 19 19 19 19 18 18 18 18 18 18 18 18 18 18 18 18 18 18 18 18 18 18 18 18
26 25 26 26 27 26 24 24 23 23 23 22 22 21 21 21 21 20 20 20 20 20 20 19 19 19 19 19 18 18 18 18 18 18 18 18 18 18 18 18 18 18 18 18 18 18 18 17 17
27 26 26 26 26 25 24 23 23 23 23 23 22 21 21 21 21 20 20 20 20 20 20 19 19 19 19 19 18 18 18 18 18 18 18 18 18 18 18 18 18 18 18 18 18 18 18 17 17
26 28 28 27 24 23 24 22 22 22 22 22 22 22 21 21 21 20 20 20 20 20 19 19 19 19 19 19 18 18 18 18 18 18 18 18 18 18 18 18 18 18 18 18 17 17 17 17 17
27 28 27 26 24 22 23 22 21 22 21 21 22 22 21 21 21 20 20 20 20 20 19 19 19 19 19 18 18 18 18 18 18 18 18 18 17 17 17 17 17 17 17 17 17 17 17 17 17
28 26 25 22 21 22 22 22 21 21 21 21 22 22 22 21 21 21 20 20 20 19 19 19 19 19 19 18 18 18 18 18 18 18 18 18 17 17 17 17 17 17 17 17 17 17 17 17 17
26 23 22 22 21 21 21 21 21 22 22 22 22 22 21 21 21 21 20 20 19 19 19 19 19 19 18 18 18 18 18 18 18 18 17 17 17 17 17 17 17 17 17 17 17 17 17 17 17
26 23 22 23 22 21 21 21 22 23 23 23 22 22 21 21 21 20 20 20 20 19 19 19 19 19 19 18 18 18 18 17 17 17 17 17 17 17 17 17 17 17 17 17 17 17 17 17 17
27 24 22 21 21 21 21 22 22 23 22 22 22 22 21 21 21 21 20 20 20 19 19 19 19 19 18 18 18 18 17 17 17 17 17 17 17 17 17 17 17 17 17 16 16 16 16 16 16
26 24 21 21 21 21 21 21 20 21 21 21 21 21 21 21 21 21 21 20 20 19 19 19 19 19 18 18 18 17 17 17 17 17 17 17 17 17 17 17 17 17 16 16 16 16 16 16 16
26 24 22 19 20 20 21 21 22 21 21 21 21 22 21 21 21 21 20 20 20 19 19 19 18 18 18 18 18 18 17 17 17 17 16 16 16 16 16 16 16 16 16 16 16 16 16 16 16
26 24 22 21 21 20 20 21 23 22 22 22 22 22 22 22 21 21 21 20 20 19 19 19 18 18 18 18 17 17 17 17 17 16 16 16 16 16 16 16 16 16 16 16 16 16 16 16 15
Wind_Speed
8 6 3 1 2 4 3 2 6 7 6 8 11 10 9 7 4 5 2 7 10 10 11 13 15 16 16 16 15 15 15 15 15 15 15 15 15 15 15 15 14 14 13 13 12 12 12 11 11
5 4 1 2 4 4 3 3 10 10 9 10 11 11 9 7 6 8 5 8 11 11 11 13 16 15 15 15 15 14 14 14 14 14 14 14 14 14 14 14 13 13 12 12 11 10 11 10 10
4 2 1 3 3 3 2 4 10 11 10 7 6 7 6 5 6 5 7 11 10 10 11 14 16 15 15 14 14 14 13 13 13 13 13 13 13 13 13 13 12 12 11 11 10 9 9 8 8
1 1 3 4 3 2 4 4 9 11 9 8 7 7 5 4 4 7 11 11 11 9 11 13 15 15 14 13 13 13 13 12 12 12 13 13 12 12 12 12 12 11 11 10 9 8 8 8 7
1 3 4 3 2 2 4 6 10 10 7 9 10 7 5 4 11 13 12 12 11 8 9 12 14 13 13 13 12 12 12 11 11 11 11 12 11 11 11 11 11 11 11 10 9 8 7 7 6
2 3 4 3 3 4 4 7 11 12 12 10 9 7 4 7 12 12 12 11 11 10 9 11 12 12 12 11 11 11 10 10 10 10 10 10 11 10 10 10 10 10 10 9 9 8 7 6 6
2 3 3 3 4 3 5 5 8 10 9 6 6 6 5 7 10 12 11 11 10 9 8 7 8 9 10 10 10 10 10 9 9 9 9 10 10 10 10 10 10 9 9 9 8 8 7 7 6
4 3 2 2 3 3 3 4 6 9 7 7 5 7 7 8 11 12 11 10 9 8 7 6 6 6 6 8 9 9 9 8 8 8 8 8 9 9 9 9 9 9 8 8 8 7 7 7 7
3 3 1 2 4 3 4 6 4 6 8 5 5 7 10 13 13 12 10 8 7 7 5 5 5 5 5 6 7 8 8 7 7 7 8 7 6 7 7 8 9 9 8 7 7 8 8 8 8
4 3 4 4 6 6 6 6 5 5 9 8 10 11 13 13 13 12 11 9 8 7 6 4 5 5 5 5 5 5 5 5 5 5 6 6 6 6 7 9 9 9 8 8 8 8 9 8 6
3 5 4 3 6 7 7 4 4 8 6 10 14 14 12 12 11 10 9 9 8 8 6 5 5 5 4 3 4 3 4 4 5 5 5 5 5 5 6 6 7 7 7 6 6 6 5 6 5
1 1 3 4 6 6 6 5 4 6 7 12 15 15 12 12 10 9 9 8 7 7 6 5 4 3 3 4 4 4 3 3 3 5 5 4 3 3 3 4 4 5 5 4 4 4 5 5 7
1 0 2 4 5 6 8 6 6 7 10 12 15 14 12 11 9 7 8 8 7 6 5 5 4 3 3 3 3 3 3 4 4 4 5 5 4 3 3 3 3 4 5 4 4 4 4 4 4
2 1 3 3 4 4 9 5 6 8 12 13 13 12 11 11 9 8 7 6 6 6 5 4 4 3 3 2 2 2 3 3 3 3 4 5 4 3 3 2 2 3 4 4 4 4 4 3 3
3 4 4 1 2 4 9 6 6 10 12 13 12 11 11 9 9 9 8 7 6 5 5 4 5 3 3 2 2 2 2 2 2 2 3 4 4 3 3 2 2 3 3 3 3 3 2 2 3
4 4 2 3 1 2 7 4 6 9 11 11 10 11 10 8 8 7 7 6 5 5 4 3 4 3 2 2 1 1 2 2 2 2 2 2 3 4 2 2 2 2 2 2 2 2 2 1 1
4 1 3 4 2 2 4 3 5 7 11 10 9 10 10 8 6 6 7 7 6 5 4 3 3 3 2 1 1 1 2 2 2 2 2 2 2 3 2 2 2 2 1 1 2 2 2 2 2
3 2 3 4 2 3 3 4 6 7 9 9 8 9 9 8 7 7 7 7 6 5 4 3 2 2 1 1 1 1 1 1 1 1 2 2 2 2 2 2 1 1 1 1 1 1 1 2 2
4 2 4 5 4 3 5 6 6 7 8 8 7 7 7 7 7 7 7 7 6 4 4 3 2 1 1 1 1 1 0 0 0 1 2 2 2 2 1 1 1 1 2 2 2 1 1 1 2
3 2 4 3 2 4 6 3 4 6 8 9 10 9 8 6 6 6 6 6 6 5 4 3 2 1 1 1 1 2 1 1 0 0 0 1 1 1 1 2 1 2 1 1 1 2 1 1 2
4 4 4 3 2 5 6 3 2 2 3 5 7 8 8 9 9 8 7 6 5 5 4 3 2 2 1 0 0 1 2 2 2 2 1 1 0 1 1 1 2 2 2 2 1 2 2 1 1
4 5 4 3 2 0 3 1 3 3 3 4 6 7 8 8 8 7 7 6 6 5 4 3 2 2 1 1 2 2 2 1 0 0 0 1 1 1 1 1 1 1 1 1 2 1 1 2 1
5 2 2 2 3 2 2 3 4 2 3 5 6 8 7 8 9 8 8 7 6 5 5 3 2 1 1 2 2 2 2 1 1 1 2 2 2 2 1 1 1 1 1 1 1 1 1 1 1
2 4 6 5 5 2 2 2 4 4 6 5 5 6 7 7 7 9 7 6 4 3 4 4 3 1 1 2 2 3 2 2 2 2 1 1 2 2 2 2 1 1 0 1 1 1 1 1 1
5 6 4 5 4 3 2 2 6 5 4 6 8 8 7 7 7 9 8 6 4 3 3 4 4 2 2 2 2 2 3 3 3 2 1 1 1 1 2 1 1 1 0 0 1 1 1 1 1
2 8 7 4 3 3 2 2 5 3 3 4 7 8 8 7 7 8 9 8 5 4 4 5 4 3 2 2 1 2 2 2 2 1 1 1 0 0 1 1 1 1 1 1 0 0 1 0 1
2 2 7 7 2 1 2 2 3 2 3 4 5 6 6 8 8 9 8 8 7 6 5 5 4 3 3 2 2 2 2 2 2 1 1 0 1 1 1 1 1 2 2 2 1 0 1 0 1
5 5 6 5 3 1 2 3 3 4 4 4 5 6 6 6 8 7 7 7 7 6 5 5 4 4 3 2 2 2 2 2 2 2 1 1 1 1 1 1 1 1 2 2 2 1 1 1 1
3 3 4 4 5 6 3 6 6 9 8 7 7 7 8 8 8 8 7 7 7 6 5 5 4 4 3 3 3 3 2 2 2 1 0 0 1 1 1 0 1 1 2 2 1 1 2 1 1
4 4 6 4 2 4 4 6 3 9 8 8 7 6 7 8 8 7 7 7 6 6 5 5 5 4 3 3 3 2 2 2 1 1 1 0 0 1 0 0 1 1 1 1 1 1 1 1 1
Wind_Direction
186 179 173 203 46 47 43 72 100 85 62 65 78 83 83 67 87 124 160 142 137 135 138 135 131 127 126 124 122 121 120 120 122 123 123 124 127 130 134 135 136 138 140 141 141 140 140 140 137
183 182 173 36 64 61 24 66 83 92 114 102 80 80 78 68 82 110 125 140 133 133 138 137 133 129 128 126 125 124 124 125 127 129 128 130 132 134 137 138 138 140 142 143 144 144 143 143 141
195 199 74 51 67 110 83 73 91 90 89 83 77 61 70 93 102 123 146 141 130 130 136 138 133 131 129 128 128 128 129 128 130 134 134 136 137 139 141 142 143 145 148 149 150 148 146 149 149
167 81 49 63 80 139 132 125 100 91 67 57 81 68 64 81 115 132 137 136 128 126 132 135 133 133 132 131 130 132 134 132 135 137 139 141 142 143 145 148 151 153 155 155 156 153 152 154 155
98 75 56 57 69 91 118 113 99 92 87 80 83 88 77 74 111 123 128 134 131 128 133 136 135 136 135 135 134 135 137 137 141 142 143 146 147 149 153 156 157 159 160 163 164 164 162 163 164
52 69 70 64 59 59 85 94 96 95 102 97 94 97 96 117 120 129 126 127 130 132 135 139 137 135 137 138 138 139 140 141 143 145 148 151 155 157 161 164 164 169 171 172 173 175 176 179 177
113 86 102 112 88 78 90 87 96 110 108 110 117 101 112 125 131 127 122 119 120 124 126 128 136 138 142 145 144 143 144 146 146 148 155 160 164 167 170 173 175 179 181 181 181 185 190 191 192
154 104 81 96 93 82 73 76 96 106 103 117 113 120 142 152 135 123 120 118 120 120 121 125 128 132 144 152 149 149 147 149 151 154 161 167 172 176 181 185 186 188 190 193 197 199 202 207 209
131 81 112 170 137 135 101 87 83 80 101 94 86 117 141 136 127 119 113 112 118 121 127 133 138 139 140 149 160 160 157 159 163 167 172 175 182 186 190 194 196 198 201 206 209 211 212 214 218
127 135 198 180 153 146 129 118 122 93 91 93 99 110 123 126 125 127 130 135 136 141 146 143 144 151 155 154 155 170 168 168 175 176 182 187 189 198 203 206 207 210 212 218 221 221 223 222 222
145 166 181 142 138 136 133 125 113 118 119 138 138 138 136 128 126 133 137 143 149 153 151 155 154 156 156 157 160 177 184 181 186 190 192 197 204 212 214 213 214 213 217 223 228 228 227 222 217
140 207 152 142 134 131 135 125 113 130 153 148 144 143 135 131 134 138 142 147 144 143 151 155 149 146 157 163 173 185 193 188 194 205 201 197 197 200 208 215 213 213 217 219 221 217 217 214 219
38 43 80 123 110 116 118 119 123 126 134 136 132 131 134 134 132 128 133 140 138 141 145 143 140 139 146 148 172 172 192 188 199 206 202 191 184 192 198 208 208 215 219 217 211 205 205 209 214
268 39 43 86 96 115 120 118 109 134 136 136 135 135 137 135 132 123 125 132 139 143 150 150 146 145 141 139 154 173 181 178 178 194 196 190 181 178 178 191 205 223 216 212 203 200 197 201 200
12 35 24 57 106 122 100 77 125 148 137 135 138 137 135 135 136 138 141 140 142 146 147 154 150 140 139 148 165 158 171 170 174 186 189 185 182 181 174 186 206 228 217 201 184 182 177 187 199
22 37 3 285 176 147 105 142 167 156 138 139 141 139 137 140 141 143 141 136 140 136 134 146 141 135 145 145 146 149 153 155 176 178 176 178 184 181 164 179 210 224 197 184 176 170 166 180 196
19 0 282 287 240 133 106 164 168 162 141 142 145 143 142 144 142 140 137 133 137 138 133 133 128 143 158 144 116 125 137 155 176 174 174 178 175 173 164 179 200 190 162 173 182 155 156 170 197
252 258 273 264 220 124 109 145 149 152 144 147 149 146 146 151 159 151 141 137 132 130 127 119 114 138 155 120 69 62 72 91 134 190 198 186 189 174 160 170 191 162 145 153 154 155 163 174 187
219 233 268 261 211 120 139 141 162 161 151 147 151 154 156 165 163 153 147 142 130 126 126 122 114 107 124 128 133 129 107 345 356 216 196 190 196 187 151 143 135 138 153 177 162 150 169 167 119
222 240 271 268 204 113 119 121 161 164 167 168 164 168 168 161 160 161 154 145 147 151 154 152 155 145 153 197 197 180 178 200 166 333 281 172 177 178 156 147 151 151 145 138 151 144 142 175 140
251 218 229 223 20 74 104 40 44 164 146 155 168 173 173 170 174 171 165 162 158 163 171 171 176 182 206 210 87 64 56 37 27 14 350 320 172 166 144 151 153 161 159 185 208 173 158 180 198
255 238 208 179 113 3 114 153 255 197 176 176 184 187 182 177 175 174 169 167 172 178 178 172 180 183 192 142 115 116 123 130 247 257 6 359 14 53 94 132 138 157 155 179 207 170 171 159 204
225 206 131 149 118 63 28 118 271 187 194 205 198 195 187 182 180 178 176 169 169 169 166 168 158 158 131 120 133 126 118 129 86 64 56 30 10 20 49 88 98 107 133 154 187 160 159 158 180
156 50 34 49 72 49 282 145 260 223 204 195 192 186 176 166 169 167 169 155 151 154 159 151 136 146 140 127 131 135 135 124 99 77 62 24 9 11 16 44 48 63 132 173 196 177 179 191 172
85 86 29 4 21 256 284 127 247 243 195 182 178 174 164 156 151 154 158 159 157 157 169 151 146 164 164 148 155 151 153 146 140 139 124 76 21 1 349 24 29 26 346 228 199 181 203 197 180
194 134 152 187 218 274 343 207 255 245 183 163 162 163 160 154 155 156 156 153 150 156 165 155 161 167 159 147 160 162 152 150 152 145 135 131 209 278 340 23 16 5 5 6 5 218 248 219 205
154 145 160 135 118 66 309 288 320 47 116 123 127 140 156 164 165 165 160 156 157 157 152 160 169 163 153 152 135 126 129 128 124 116 103 325 304 312 21 39 30 8 4 359 2 337 267 260 241
139 145 83 102 141 196 285 263 224 223 197 160 151 154 165 170 166 160 158 162 165 164 159 151 156 171 158 140 141 130 112 113 106 93 77 45 325 323 13 15 22 12 6 7 9 1 2 48 318
60 67 98 115 147 149 201 264 212 193 188 172 175 171 161 158 163 160 157 161 162 155 150 150 150 138 130 126 117 115 121 133 121 117 138 195 299 328 15 41 26 6 4 5 19 6 21 32 344
148 155 137 143 223 159 164 257 223 171 177 171 166 161 154 150 154 156 156 154 154 154 149 149 149 147 149 141 123 125 118 112 119 141 241 227 303 319 313 35 42 11 10 7 16 4 1 340 311
Height
1513 1513 1512 1513 1515 1521 1521 1511 1503 1502 1504 1504 1503 1504 1508 1511 1515 1522 1519 1517 1517 1517 1517 1517 1517 1517 1518 1519 1519 1520 1521 1521 1522 1523 1525 1526 1528 1529 1530 1531 1533 1535 1536 1538 1539 1540 1541 1543 1544
1513 1513 1514 1514 1521 1532 1525 1509 1505 1504 1506 1505 1506 1507 1509 1513 1515 1516 1517 1518 1518 1518 1518 1518 1519 1519 1519 1520 1520 1521 1522 1523 1524 1525 1526 1527 1528 1529 1531 1532 1534 1535 1536 1538 1539 1540 1541 1543 1544
1514 1513 1515 1517 1525 1529 1524 1510 1506 1505 1506 1505 1508 1510 1512 1516 1517 1517 1518 1519 1519 1519 1519 1520 1520 1520 1521 1521 1521 1522 1523 1524 1524 1526 1527 1528 1529 1530 1531 1533 1534 1535 1536 1538 1539 1540 1541 1543 1544
1514 1516 1517 1523 1525 1517 1512 1509 1506 1507 1509 1509 1510 1514 1516 1518 1518 1519 1519 1520 1520 1520 1520 1521 1521 1522 1522 1522 1522 1523 1524 1524 1525 1526 1527 1528 1530 1531 1532 1533 1534 1535 1536 1538 1539 1540 1541 1543 1544
1515 1516 1522 1528 1522 1513 1508 1507 1506 1507 1510 1512 1512 1516 1519 1520 1520 1520 1520 1521 1521 1521 1522 1522 1523 1523 1523 1523 1524 1524 1525 1525 1526 1527 1528 1529 1530 1531 1532 1533 1534 1535 1536 1538 1539 1540 1541 1542 1544
1516 1518 1530 1533 1522 1512 1509 1508 1508 1509 1512 1514 1515 1517 1522 1522 1522 1522 1522 1522 1522 1522 1523 1524 1524 1524 1524 1525 1525 1526 1526 1526 1526 1528 1529 1529 1530 1531 1533 1534 1534 1535 1536 1537 1538 1540 1541 1542 1543
1519 1522 1528 1527 1522 1516 1512 1511 1510 1511 1512 1514 1515 1518 1523 1524 1523 1523 1523 1524 1524 1524 1524 1525 1525 1525 1526 1526 1526 1527 1527 1527 1527 1528 1528 1530 1531 1532 1533 1534 1535 1536 1536 1537 1538 1539 1540 1541 1543
1518 1522 1526 1525 1523 1520 1513 1512 1513 1512 1514 1516 1516 1518 1522 1524 1524 1524 1525 1525 1525 1526 1526 1526 1526 1526 1527 1527 1527 1527 1528 1528 1528 1528 1529 1530 1530 1531 1532 1533 1534 1535 1536 1537 1538 1538 1540 1541 1542
1517 1524 1529 1523 1521 1519 1514 1514 1515 1515 1515 1517 1517 1518 1521 1524 1524 1525 1525 1526 1526 1527 1527 1527 1527 1527 1527 1527 1528 1528 1528 1528 1529 1528 1529 1530 1530 1531 1532 1533 1534 1534 1535 1536 1536 1537 1538 1539 1541
1514 1525 1520 1512 1511 1513 1513 1513 1515 1516 1516 1519 1520 1522 1523 1524 1525 1525 1525 1526 1526 1527 1527 1527 1527 1527 1528 1528 1528 1529 1529 1529 1529 1529 1529 1530 1531 1531 1532 1532 1533 1534 1534 1535 1535 1536 1537 1538 1539
1511 1516 1511 1509 1509 1510 1513 1513 1514 1515 1519 1519 1520 1522 1524 1525 1525 1526 1526 1526 1527 1527 1528 1528 1528 1528 1528 1528 1529 1529 1529 1529 1529 1529 1529 1530 1530 1531 1532 1532 1532 1533 1533 1533 1534 1534 1535 1536 1537
1511 1510 1508 1509 1509 1510 1512 1514 1515 1515 1518 1519 1520 1521 1523 1524 1525 1526 1526 1527 1528 1528 1528 1529 1529 1529 1529 1529 1529 1529 1529 1529 1529 1529 1529 1530 1530 1531 1531 1531 1531 1532 1532 1532 1532 1532 1533 1534 1535
1510 1510 1508 1508 1508 1510 1511 1514 1515 1517 1518 1520 1521 1523 1524 1525 1526 1527 1527 1528 1528 1528 1529 1529 1529 1529 1529 1529 1529 1529 1529 1529 1529 1529 1530 1530 1530 1530 1531 1531 1530 1530 1530 1530 1530 1530 1530 1532 1533
1511 1509 1509 1509 1509 1510 1512 1515 1516 1519 1519 1521 1523 1524 1525 1526 1527 1527 1528 1528 1529 1529 1529 1530 1530 1530 1530 1529 1529 1529 1529 1529 1529 1529 1530 1530 1530 1530 1530 1530 1529 1529 1529 1528 1528 1528 1529 1530 1531
1511 1512 1512 1511 1510 1512 1513 1519 1518 1519 1520 1522 1524 1525 1526 1527 1527 1528 1528 1528 1529 1530 1530 1530 1530 1530 1530 1530 1529 1529 1529 1529 1529 1529 1529 1530 1530 1530 1529 1529 1528 1528 1527 1527 1527 1527 1528 1528 1529
1513 1518 1524 1514 1511 1513 1517 1529 1520 1521 1521 1523 1524 1525 1526 1527 1528 1528 1528 1528 1529 1529 1530 1530 1530 1530 1530 1530 1529 1529 1529 1529 1529 1529 1529 1529 1529 1529 1529 1528 1527 1527 1526 1526 1526 1526 1526 1527 1528
1523 1530 1528 1518 1510 1512 1517 1525 1520 1521 1521 1523 1524 1525 1526 1527 1528 1529 1529 1528 1528 1529 1530 1530 1530 1530 1530 1530 1530 1529 1529 1529 1529 1529 1529 1529 1529 1528 1528 1527 1526 1526 1525 1525 1525 1525 1526 1526 1527
1531 1530 1526 1523 1514 1513 1519 1521 1520 1521 1521 1522 1524 1525 1526 1527 1528 1529 1528 1528 1529 1529 1530 1530 1531 1530 1530 1530 1530 1529 1529 1529 1529 1529 1529 1528 1528 1528 1527 1527 1526 1525 1525 1524 1524 1525 1525 1526 1526
1518 1523 1524 1518 1511 1515 1520 1521 1520 1521 1522 1523 1525 1525 1526 1527 1528 1529 1529 1529 1529 1530 1530 1530 1530 1530 1530 1530 1529 1529 1528 1528 1528 1528 1528 1528 1528 1527 1526 1526 1525 1525 1524 1524 1524 1524 1524 1525 1525
1515 1521 1521 1515 1509 1514 1522 1524 1521 1521 1522 1523 1523 1524 1525 1526 1528 1528 1528 1528 1529 1529 1530 1530 1530 1530 1530 1529 1529 1528 1528 1528 1528 1528 1528 1528 1527 1527 1526 1525 1525 1524 1524 1523 1523 1523 1523 1524 1524
1514 1517 1517 1518 1513 1514 1522 1532 1528 1523 1523 1524 1524 1524 1525 1525 1526 1527 1527 1528 1528 1529 1529 1529 1529 1529 1529 1529 1528 1528 1527 1527 1527 1527 1527 1527 1527 1526 1525 1525 1524 1524 1523 1523 1522 1522 1522 1522 1523
1516 1505 1506 1511 1523 1532 1527 1547 1533 1525 1524 1523 1524 1524 1524 1525 1526 1527 1527 1527 1528 1528 1529 1529 1529 1529 1528 1528 1527 1527 1526 1526 1526 1526 1526 1526 1526 1525 1524 1524 1524 1523 1523 1522 1522 1522 1522 1522 1522
1505 1500 1504 1510 1522 1533 1531 1542 1538 1526 1527 1524 1523 1523 1523 1524 1525 1526 1526 1527 1528 1528 1528 1529 1529 1528 1528 1527 1527 1526 1526 1526 1526 1526 1526 1526 1525 1525 1524 1523 1523 1522 1522 1521 1521 1521 1521 1521 1521
1497 1504 1510 1519 1530 1547 1537 1542 1542 1529 1523 1521 1520 1520 1521 1523 1524 1525 1527 1527 1528 1529 1528 1528 1528 1527 1527 1526 1526 1526 1525 1525 1525 1525 1525 1525 1525 1524 1524 1523 1522 1522 1521 1520 1520 1519 1519 1519 1519
1501 1521 1542 1545 1554 1552 1536 1540 1537 1519 1515 1516 1517 1517 1519 1521 1522 1523 1525 1526 1527 1527 1527 1527 1526 1526 1526 1525 1525 1525 1525 1525 1525 1525 1525 1524 1524 1524 1523 1523 1522 1521 1520 1519 1519 1518 1518 1518 1517
1504 1517 1542 1554 1557 1551 1539 1541 1528 1514 1513 1513 1513 1515 1518 1519 1521 1522 1523 1524 1525 1526 1525 1525 1526 1525 1525 1525 1524 1524 1524 1524 1524 1524 1525 1524 1524 1523 1523 1522 1521 1520 1519 1518 1518 1517 1516 1516 1516
1505 1513 1516 1535 1543 1552 1546 1534 1523 1514 1514 1514 1514 1515 1516 1518 1520 1521 1523 1523 1525 1525 1524 1525 1525 1524 1524 1524 1524 1523 1524 1524 1524 1524 1524 1524 1523 1523 1522 1521 1521 1520 1519 1517 1516 1515 1515 1515 1515
1496 1504 1521 1535 1550 1558 1549 1541 1537 1523 1517 1514 1514 1515 1516 1517 1519 1521 1522 1523 1524 1524 1524 1525 1525 1524 1524 1523 1523 1523 1523 1523 1523 1523 1523 1523 1523 1522 1521 1520 1520 1519 1518 1517 1515 1514 1514 1513 1513
1501 1508 1518 1532 1536 1552 1558 1545 1515 1515 1512 1512 1513 1513 1515 1517 1519 1520 1521 1522 1523 1524 1524 1524 1524 1524 1523 1523 1523 1523 1523 1523 1522 1522 1522 1522 1521 1521 1521 1520 1519 1518 1517 1516 1515 1513 1513 1512 1511
1495 1503 1514 1532 1536 1539 1545 1539 1505 1507 1508 1509 1511 1513 1515 1516 1518 1519 1521 1522 1522 1523 1523 1523 1523 1523 1523 1523 1523 1523 1522 1522 1521 1521 1520 1520 1520 1520 1519 1519 1518 1517 1516 1515 1514 1512 1511 1511 1510